Weather in Novaya Shulba

Kazakhstan     50°32′30″N   81°19′39″E
temp.,
°C
wind,
m/s
gust,
m/s
humid.,
%
clouds,
%
prec.,
mm/h
press.,
hPa
HPBL,
m
15 may, sat
sat1500:00+11nnw357669 0.3 102486
03:00+9n477182 0.0 1024103
06:00+10n37715 0.0 1025140
09:00+16nne475056 0.0 1025557
12:00+20nne56365 0.0 10241479
15:00+21nne45335 0.0 10221661
18:00+21nne45360 0.0 10221583
21:00+15ne22561 0.0 102219
16 may, sun
sun1600:00+14nnw11550 0.0 102111
03:00+13nnw11575 0.0 102111
06:00+13sw11580 0.0 102110
09:00+20sw22390 0.0 1020483
12:00+24w23285 0.0 10191764
15:00+26w33265 0.0 10172652
18:00+26wsw232834 0.0 10152324
21:00+19sw22443 0.0 101521
17 may, mon
mon1700:00+17wsw2245100 0.0 101521
03:00+15wnw1163100 0.6 101511
06:00+15nw367531 0.7 1015167
09:00+20nnw34615 0.1 1016828
12:00+23nnw454638 1.1 10161992
15:00+23n5646100 0.0 10151401
18:00+23nne474155 0.0 10151854
21:00+18ne22625 0.0 101617
18 may, tue
tue1800:00+16n22685 0.0 101617
03:00+15ne11680 0.0 101611
06:00+15ssw11675 0.0 101615
09:00+22sw34485 0.0 1014543
12:00+26wsw463430 0.0 10131638
15:00+26nnw101037100 0.0 10111777
18:00+24nw9123888 0.5 1010925
21:00+19ene23535 0.3 101036
19 may, wed
wed1900:00+16ese117081 0.4 101014
03:00+15ese118099 0.1 100912
06:00+15sw127784 0.3 100867
09:00+20wnw3556100 0.3 1007847
12:00+23w574713 0.6 10061825
15:00+22nw694924 0.3 10041448
18:00+19n695861 0.4 1004962
21:00+13nnw6128490 0.9 1006659